Stations météo

réclame
Mon MeteoGroup
Grenoble/St.Geoirs, France (7486): Température de l'air & dewpoint: 08.10.2019 20:00:00 - 14.10.2019 20:00:00 (CEST)Grenoble/St.Geoirs, France (7486): Température de l'air 5cm: 08.10.2019 20:00:00 - 14.10.2019 20:00:00 (CEST)Grenoble/St.Geoirs, France (7486): Température de l'air -20cm & Température de l'air -100cm: 08.10.2019 20:00:00 - 14.10.2019 20:00:00 (CEST)Grenoble/St.Geoirs, France (7486): Vitesse du vent & gusts: 08.10.2019 20:00:00 - 14.10.2019 20:00:00 (CEST)Grenoble/St.Geoirs, France (7486): Direction du vent: 08.10.2019 20:00:00 - 14.10.2019 20:00:00 (CEST)Grenoble/St.Geoirs, France (7486): reduced air pressure: 08.10.2019 20:00:00 - 14.10.2019 20:00:00 (CEST)Grenoble/St.Geoirs, France (7486): visibility: 08.10.2019 20:00:00 - 14.10.2019 20:00:00 (CEST)Grenoble/St.Geoirs, France (7486): Ensoleillement: 08.10.2019 20:00:00 - 14.10.2019 20:00:00 (CEST)Grenoble/St.Geoirs, France (7486): Quantités de précipitations: 08.10.2019 20:00:00 - 14.10.2019 20:00:00 (CEST)
Date & Time tt [°C] td [°C] tt 5cm [°C] tt -20cm [°C] tt -100cm [°C] ff [km/h] ff [knt] fx [km/h] fx [knt] dd ppp [hPa] vv [km] sd [min] rr [mm]
14.10.2019 20:00:00 18,9 14,8 18,0 15,8 16,0 21 11 45 24 SSW 1012,2 18 0 0,0
14.10.2019 19:00:00 19,8 14,6 18,6 15,6 16,0 12 7 38 20 SW 1011,8 22 33 0,0
14.10.2019 18:00:00 21,5 14,2 20,7 15,5 16,0 10 5 40 22 WSW 1011,5 26 16 0,0
14.10.2019 17:00:00 22,9 13,9 24,2 15,4 16,0 19 10 42 23 SW 1011,4 19 60 0,0
14.10.2019 16:00:00 23,5 13,9 25,2 15,3 16,0 21 11 41 22 SW 1011,7 17 60 0,0
14.10.2019 15:00:00 22,8 12,7 25,0 15,2 16,0 29 16 45 25 SW 1012,8 19 60 0,0
14.10.2019 14:00:00 23,0 12,6 25,0 15,2 15,9 27 15 42 23 SSW 1013,6 22 60 0,0
14.10.2019 13:00:00 23,1 11,2 23,9 15,2 16,0 24 13 51 27 SW 1014,9 24 60 0,0
14.10.2019 12:00:00 21,9 11,3 22,6 15,2 16,0 27 15 47 25 SW 1015,9 27 60 0,0
14.10.2019 11:00:00 19,6 11,6 19,6 15,2 15,9 10 5 25 13 W 1016,6 17 60 0,0
14.10.2019 10:00:00 17,1 12,6 15,3 15,3 16,0 12 6 21 11 W 1017,2 19 60 0,0
14.10.2019 09:00:00 14,1 12,0 9,9 15,4 16,0 4 2 13 7 E 1017,3 19 45 0,0
14.10.2019 08:00:00 11,7 10,8 8,6 15,4 16,0 9 5 13 7 ENE 1017,4 10 0 0,0
14.10.2019 07:00:00 14,2 12,4 9,0 15,5 16,0 4 2 13 7 WNW 1017,2 26 0 0,0
14.10.2019 06:00:00 13,8 12,4 9,4 15,5 16,0 3 2 16 8 ESE 1017,3 16 0 0,0
14.10.2019 05:00:00 14,2 12,2 9,9 15,6 16,0 11 6 21 12 SSE 1017,5 10 0 0,0
14.10.2019 04:00:00 13,7 11,2 10,9 15,6 16,0 6 3 17 9 S 1017,8 15 0 0,0
14.10.2019 03:00:00 15,3 12,6 13,3 15,6 16,0 13 7 22 12 W 1017,9 23 0 0,0
14.10.2019 02:00:00 15,6 13,4 14,2 15,6 15,9 16 9 32 17 WSW 1018,4 20 0 0,0
14.10.2019 01:00:00 16,1 13,9 14,8 15,7 16,0 22 12 39 21 WSW 1018,6 19 0 0,0
14.10.2019 00:00:00 16,9 14,0 16,2 15,7 16,0 21 12 36 20 SW 1018,8 22 0 0,0
13.10.2019 23:00:00 16,9 13,6 16,1 15,7 16,0 18 10 36 19 SW 1018,9 26 0 0,0
13.10.2019 22:00:00 17,3 13,4 16,2 15,7 16,0 17 9 34 18 SW 1018,3 27 0 0,0
13.10.2019 21:00:00 18,2 13,5 16,1 15,6 16,0 23 12 40 21 SW 1017,5 29 0 0,0
13.10.2019 20:00:00 18,3 12,7 14,9 15,5 16,0 16 9 29 16 SW 1017,2 33 0 0,0
13.10.2019 19:00:00 18,2 12,2 15,5 15,4 16,0 10 5 26 14 W 1016,9 35 28 0,0
13.10.2019 18:00:00 20,7 12,4 21,1 15,3 16,0 16 9 42 23 SW 1016,5 36 60 0,0
13.10.2019 17:00:00 21,6 13,0 23,6 15,2 16,0 19 10 45 24 SW 1016,5 17 60 0,0
13.10.2019 16:00:00 21,9 13,0 24,4 15,1 15,9 24 13 40 22 WSW 1016,8 20 60 0,0
13.10.2019 15:00:00 22,2 12,2 24,6 15,0 16,0 26 14 40 22 SW 1017,0 22 60 0,0
13.10.2019 14:00:00 21,8 12,4 21,0 15,0 16,0 19 10 38 20 WSW 1017,4 27 51 0,0
13.10.2019 13:00:00 20,9 13,3 19,3 14,9 16,0 15 8 32 17 SW 1018,3 34 42 0,0
13.10.2019 12:00:00 19,1 13,3 17,8 14,9 16,0 19 10 30 16 WSW 1018,8 28 10 0,0
13.10.2019 11:00:00 17,5 12,6 17,4 14,9 16,0 13 7 26 14 SW 1019,1 24 35 0,0
13.10.2019 10:00:00 15,9 13,2 15,3 15,0 16,0 13 7 28 15 SSW 1019,0 13 9 0,0
13.10.2019 09:00:00 15,7 13,2 14,9 15,0 16,0 16 9 26 14 SSW 1018,6 16 25 0,0
13.10.2019 08:00:00 15,2 13,4 13,5 15,1 16,0 15 8 29 15 SW 1018,3 13 0 0,2
13.10.2019 07:00:00 15,0 13,0 12,3 15,1 16,0 12 6 21 11 SSW 1018,3 15 0 0,0
13.10.2019 06:00:00 14,6 12,8 11,3 15,1 16,0 6 3 13 7 SW 1018,9 16 0 0,0
13.10.2019 05:00:00 14,2 12,9 12,2 15,1 16,0 4 2 10 6 E 1018,9 14 0 0,0
13.10.2019 04:00:00 14,7 13,1 12,4 15,2 16,0 4 2 11 6 SSW 1018,9 9 0 0,0
13.10.2019 03:00:00 13,7 12,6 10,5 15,2 16,0 7 4 13 7 NNE 1019,6 15 0 0,0
13.10.2019 02:00:00 14,1 12,8 10,6 15,2 16,0 3 2 9 5 NNE 1019,9 14 0 0,0
13.10.2019 01:00:00 13,8 12,4 10,2 15,2 16,0 4 2 19 10 N 1020,1 14 0 0,0
13.10.2019 00:00:00 15,2 13,4 13,4 15,2 16,0 10 5 22 12 W 1020,0 14 0 0,0
12.10.2019 23:00:00 16,0 13,7 14,7 15,2 16,0 11 6 26 14 WNW 1019,9 16 0 0,0
12.10.2019 22:00:00 17,2 14,1 13,6 15,2 16,0 15 8 26 14 WSW 1019,7 24 0 0,0
12.10.2019 21:00:00 16,3 13,6 14,1 15,1 16,0 9 5 19 11 WSW 1019,5 18 0 0,0
12.10.2019 20:00:00 17,6 13,9 16,0 15,0 16,0 11 6 29 16 SSW 1019,4 18 0 0,0
12.10.2019 19:00:00 18,4 14,1 17,5 14,9 16,0 9 5 26 14 WSW 1019,0 19 8 0,0
12.10.2019 18:00:00 18,8 14,1 18,3 14,8 16,0 16 9 29 16 WSW 1018,7 18 9 0,0
12.10.2019 17:00:00 19,5 14,5 19,9 14,7 16,0 18 10 40 22 WSW 1018,8 21 0 0,0
12.10.2019 16:00:00 20,1 14,5 20,8 14,6 16,1 25 14 48 26 SW 1019,0 20 9 0,0
12.10.2019 15:00:00 19,8 15,0 19,7 14,5 16,1 28 15 54 29 WSW 1018,9 19 0 0,0
12.10.2019 14:00:00 19,1 13,7 20,2 14,4 16,0 24 13 38 20 W 1019,0 19 0 0,0
12.10.2019 13:00:00 20,0 13,2 20,8 14,3 16,1 25 13 43 23 SW 1019,1 16 45 0,0
12.10.2019 12:00:00 20,2 13,2 20,0 14,3 16,1 13 7 32 18 SW 1019,0 18 28 0,0
12.10.2019 11:00:00 17,6 12,9 19,5 14,4 16,0 3 1 11 6 WNW 1019,3 11 50 0,0
12.10.2019 10:00:00 15,3 13,1 13,5 14,4 16,1 4 2 16 9 E 1019,6 7 48 0,0
12.10.2019 09:00:00 12,2 11,7 8,9 14,5 16,1 11 6 14 8 E 1019,9 4,5 15 0,0
12.10.2019 08:00:00 10,4 9,8 8,6 14,5 16,1 10 5 18 10 E 1020,1 6 0 0,0
12.10.2019 07:00:00 10,5 9,7 9,2 14,6 16,1 16 9 21 12 E 1020,2 5 0 0,0
12.10.2019 06:00:00 10,7 9,9 8,8 14,6 16,1 11 6 16 8 ENE 1020,3 4,2 0 0,0
12.10.2019 05:00:00 11,7 10,1 10,2 14,7 16,1 7 4 26 14 ENE 1020,2 6 0 0,0
12.10.2019 04:00:00 14,1 11,6 12,0 14,7 16,1 10 6 30 16 SW 1020,0 17 0 0,0
12.10.2019 03:00:00 14,9 11,5 11,5 14,7 16,1 13 7 37 20 WSW 1020,3 27 0 0,0
12.10.2019 02:00:00 14,4 11,0 10,5 14,7 16,1 8 4 28 15 W 1020,7 28 0 0,0
12.10.2019 01:00:00 14,6 10,8 12,0 14,8 16,2 5 3 33 18 W 1020,6 26 0 0,0
12.10.2019 00:00:00 15,3 11,1 13,7 14,7 16,1 16 9 45 24 WSW 1020,6 28 0 0,0
11.10.2019 23:00:00 16,2 11,1 12,7 14,8 16,1 21 11 40 22 SW 1020,4 18 0 0,0
11.10.2019 22:00:00 16,0 10,3 13,5 14,7 16,1 11 6 43 23 W 1020,2 21 0 0,0
11.10.2019 21:00:00 16,7 10,8 15,0 14,6 16,2 14 8 38 21 SW 1019,7 21 0 0,0
11.10.2019 20:00:00 17,7 10,6 15,7 14,5 16,1 16 9 40 22 SW 1019,2 19 0 0,0
11.10.2019 19:00:00 17,9 10,8 16,9 14,4 16,2 14 7 41 22 SW 1018,9 20 32 0,0
11.10.2019 18:00:00 19,8 11,3 20,4 14,3 16,2 19 10 45 24 SW 1018,4 24 60 0,0
11.10.2019 17:00:00 20,7 11,3 23,0 14,1 16,2 24 13 35 19 SSW 1018,2 20 60 0,0
11.10.2019 16:00:00 21,4 10,8 24,6 13,9 16,2 14 8 32 17 S 1018,4 15 60 0,0
11.10.2019 15:00:00 20,3 9,5 22,6 13,8 16,2 14 8 33 18 SSW 1019,3 16 60 0,0
11.10.2019 14:00:00 19,5 9,1 21,5 13,8 16,2 24 13 39 21 SSW 1020,2 16 60 0,0
11.10.2019 13:00:00 17,9 8,5 19,8 13,8 16,2 5 3 20 11 N 1021,2 40 60 0,0
11.10.2019 12:00:00 15,6 8,6 16,3 13,8 16,2 11 6 18 10 E 1022,2 37 60 0,0
11.10.2019 11:00:00 13,4 8,2 13,2 13,9 16,2 13 7 22 12 ENE 1022,8 32 60 0,0
11.10.2019 10:00:00 11,4 7,9 9,4 14,1 16,2 17 9 22 12 E 1023,1 31 60 0,0
11.10.2019 09:00:00 8,0 7,1 0,5 14,2 16,2 10 5 16 9 E 1023,3 27 49 0,0
11.10.2019 08:00:00 4,0 3,3 0,1 14,3 16,2 8 5 12 6 E 1023,2 27 0 0,0
11.10.2019 07:00:00 4,6 3,7 0,8 14,4 16,2 5 3 13 7 SSE 1023,0 38 0 0,0
11.10.2019 06:00:00 5,9 4,2 2,4 14,5 16,2 11 6 22 12 ESE 1022,6 41 0 0,0
11.10.2019 05:00:00 5,6 4,7 2,5 14,6 16,2 9 5 16 8 E 1023,3 35 0 0,0
11.10.2019 04:00:00 5,9 5,0 1,4 14,7 16,2 11 6 16 9 E 1023,8 28 0 0,0
11.10.2019 03:00:00 5,9 4,9 1,8 14,9 16,3 7 4 12 7 E 1024,4 26 0 0,0
11.10.2019 02:00:00 6,7 6,3 2,8 15,0 16,3 9 5 15 8 E 1024,3 29 0 0,0
11.10.2019 01:00:00 6,5 6,1 3,0 15,1 16,3 6 4 12 6 ENE 1024,2 20 0 0,0
11.10.2019 00:00:00 7,0 5,5 3,6 15,1 16,3 7 4 10 5 ESE 1024,1 16 0 0,0
10.10.2019 23:00:00 8,2 7,3 3,9 15,1 16,3 6 3 11 6 E 1023,9 17 0 0,0
10.10.2019 22:00:00 8,2 7,4 5,0 15,1 16,3 9 5 19 11 ESE 1023,8 20 0 0,0
10.10.2019 21:00:00 9,6 7,9 6,0 15,1 16,3 7 4 11 6 ESE 1023,5 23 0 0,0
10.10.2019 20:00:00 12,4 8,5 7,6 15,0 16,3 8 4 11 6 NNE 1023,1 30 0 0,0
10.10.2019 19:00:00 14,7 7,5 12,1 14,9 16,3 4 2 16 9 E 1022,4 20 34 0,0
10.10.2019 18:00:00 15,8 9,0 17,2 14,7 16,3 12 6 26 14 NNW 1022,2 29 60 0,0
10.10.2019 17:00:00 16,6 8,3 18,6 14,6 16,3 13 7 21 11 NW 1022,1 22 19 0,0
10.10.2019 16:00:00 17,2 8,3 19,1 14,5 16,3 9 5 20 11 NNW 1021,9 20 26 0,0
10.10.2019 15:00:00 16,8 8,0 19,7 14,4 16,3 13 7 19 11 N 1021,9 29 53 0,0
10.10.2019 14:00:00 16,8 6,6 19,8 14,3 16,3 5 3 22 12 N 1022,3 19 57 0,0
10.10.2019 13:00:00 16,1 8,1 17,0 14,3 16,3 11 6 22 12 NW 1023,0 37 55 0,0
10.10.2019 12:00:00 14,9 9,3 16,4 14,3 16,3 11 6 23 13 NNW 1023,1 34 4 0,0
10.10.2019 11:00:00 15,3 8,5 14,6 14,4 16,3 5 3 15 8 NE 1022,7 25 27 0,0
10.10.2019 10:00:00 12,9 9,5 10,6 14,5 16,3 10 5 15 8 E 1022,6 26 47 0,0
10.10.2019 09:00:00 9,3 8,5 4,9 14,6 16,3 10 5 15 8 E 1022,6 21 51 0,0
10.10.2019 08:00:00 5,9 5,6 3,7 14,7 16,4 13 7 15 8 E 1022,6 7 0 0,0
10.10.2019 07:00:00 5,9 5,0 3,4 14,8 16,4 11 6 13 7 E 1022,4 11 0 0,0
10.10.2019 06:00:00 7,8 7,4 5,7 14,9 16,4 9 5 12 7 E 1021,8 15 0 0,0
10.10.2019 05:00:00 8,8 8,7 5,1 15,0 16,4 10 6 13 7 E 1021,4 11 0 0,0
10.10.2019 04:00:00 6,9 6,3 5,1 15,1 16,3 8 4 12 7 E 1021,6 2,1 0 0,0
10.10.2019 03:00:00 8,4 8,0 5,6 15,2 16,4 8 4 13 7 E 1021,2 7 0 0,0
10.10.2019 02:00:00 8,6 8,2 6,1 15,2 16,4 12 6 14 7 E 1021,1 10 0 0,0
10.10.2019 01:00:00 9,9 9,4 8,6 15,3 16,4 14 8 17 9 E 1020,6 8 0 0,0
10.10.2019 00:00:00 10,0 9,8 7,1 15,3 16,4 9 5 15 8 E 1020,8 11 0 0,0
09.10.2019 23:00:00 8,9 8,1 7,2 15,4 16,4 10 5 19 10 ENE 1020,9 9 0 0,0
09.10.2019 22:00:00 10,1 9,2 8,7 15,4 16,4 13 7 19 10 E 1020,5 9 0 0,0
09.10.2019 21:00:00 10,6 9,7 9,2 15,4 16,4 15 8 22 12 E 1020,3 8 0 0,0
09.10.2019 20:00:00 11,8 10,0 10,6 15,3 16,4 13 7 19 10 ENE 1019,7 15 0 0,0
09.10.2019 19:00:00 14,1 12,0 13,7 15,3 16,4 17 9 26 14 NE 1018,6 21 12 0,0
09.10.2019 18:00:00 16,6 10,4 17,6 15,2 16,3 9 5 18 10 E 1018,2 27 57 0,0
09.10.2019 17:00:00 17,0 11,5 16,9 15,2 16,4 11 6 25 13 E 1017,8 38 48 0,0
09.10.2019 16:00:00 15,8 12,4 16,9 15,2 16,4 16 8 23 12 ENE 1018,4 43 41 0,0
09.10.2019 15:00:00 14,3 11,8 12,8 15,2 16,4 15 8 21 12 E 1018,7 19 2 0,0
09.10.2019 14:00:00 12,7 11,9 12,5 15,2 16,4 14 8 21 11 E 1019,1 8 0 3,2
09.10.2019 13:00:00 12,5 11,9 12,0 15,3 16,4 8 4 12 6 E 1019,4 3,3 0 4,8
09.10.2019 12:00:00 12,1 11,2 11,9 15,3 16,4 8 4 21 11 SE 1018,7 4,3 0 4,4
09.10.2019 11:00:00 12,4 10,3 11,0 15,3 16,4 8 4 22 12 WSW 1017,9 21 0 4,3
09.10.2019 10:00:00 13,0 9,8 11,5 15,3 16,4 7 4 24 13 W 1017,3 21 0 2,2
09.10.2019 09:00:00 14,1 10,5 12,3 15,3 16,4 8 5 26 14 WSW 1015,9 6 0 0,4
09.10.2019 08:00:00 14,1 10,1 12,9 15,3 16,4 5 3 9 5 W 1015,2 25 0 0,0
09.10.2019 07:00:00 14,1 10,3 13,3 15,4 16,5 6 4 17 9 ENE 1015,0 34 0 0,0
09.10.2019 06:00:00 14,1 10,9 13,7 15,4 16,5 13 7 15 8 E 1015,1 30 0 0,0
09.10.2019 05:00:00 14,7 10,5 14,2 15,4 16,4 10 5 16 8 E 1015,5 32 0 0,0
09.10.2019 04:00:00 15,4 8,8 13,0 15,4 16,4 6 4 16 9 N 1015,7 33 0 0,0
09.10.2019 03:00:00 16,4 8,1 15,2 15,4 16,5 8 4 16 8 N 1016,3 27 0 0,0
09.10.2019 02:00:00 17,2 8,1 15,4 15,4 16,4 6 4 26 14 SSW 1016,1 24 0 0,0
09.10.2019 01:00:00 17,5 7,8 15,7 15,4 16,5 5 3 23 12 ESE 1016,3 34 0 0,0
09.10.2019 00:00:00 17,3 8,4 14,7 15,4 16,5 10 6 22 12 WSW 1016,6 28 0 0,0
08.10.2019 23:00:00 17,3 8,4 15,0 15,4 16,5 8 4 17 9 NNW 1016,4 30 0 0,0
08.10.2019 22:00:00 18,6 7,1 15,9 15,4 16,5 7 4 19 10 S 1016,0 31 0 0,0
08.10.2019 21:00:00 18,2 7,3 14,0 15,3 16,5 9 5 24 13 SSE 1016,1 34 0 0,0
08.10.2019 20:00:00 17,3 8,4 13,7 15,2 16,5 8 4 27 15 W 1016,1 35 0 0,0

tt = Température de l'air
td = dewpoint
tt 5cm = Température de l'air 5cm
tt -20cm = Température de l'air -20cm
tt -100cm = Température de l'air -100cm
ff = Vitesse du vent
fx = gusts
dd = Direction du vent
ppp = reduced air pressure
vv = visibility
sd = Ensoleillement
rr = Quantités de précipitations

stations d'obs. à proximité